Location: *
(50.6089°N, 2.2719°E)
Time: 08:42:23
(UTC+00:00)

STARLINK-37 - Pass Details

Date: 18 October 2019
Orbit: 548 x 553 km, 53.0° (Epoch: 19 November)

Event Time Altitude Azimuth Distance (km) Brightness Sun altitude
Rises 17:47:14 0° 253° (WSW) 2,720 9.1 -9.2°
Reaches altitude 10° 17:49:28 10° 254° (WSW) 1,827 7.8 -9.6°
Maximum altitude 17:53:38 83° 343° (NNW) 561 3.7 -10.3°
Enters shadow 17:57:08 14° 71° (ENE) 1,564 5.3 -10.8°
